Simultaneous Nadir Overpasses (SNOs) Predictions

Prediction of SNOs between NOAA-19 and NPP Satellite Orbit:

Table of predicted SNOs for the next 14.0 days since TLE Epoch: 11/1/2019
Index Date (NOAA-19) Time (NOAA-19) Lat,Lon (NOAA-19) SZA (NOAA-19 ) Date (NPP) Time (NPP) Lat,Lon (NPP) SZA (NPP ) Distance(km) Time Diff (sec)
1 11/07/2019 17:02:59 -79.78, 67.20 82.35 11/07/2019 17:04:09 -79.80, 67.34 82.38 3.34 70
2 11/07/2019 17:53:53 79.81,-125.25 97.66 11/07/2019 17:54:54 79.79,-125.25 97.62 1.89 61
3 11/07/2019 18:44:59 -79.80, 41.92 82.34 11/07/2019 18:45:39 -79.80, 41.93 82.35 0.38 40
4 11/07/2019 19:35:54 79.80,-150.83 97.68 11/07/2019 19:36:24 79.79,-150.66 97.65 3.37 30
5 11/07/2019 20:26:59 -79.82, 16.64 82.32 11/07/2019 20:27:09 -79.81, 16.51 82.32 2.75 10
6 11/07/2019 21:17:54 79.82,-176.11 97.69 11/07/2019 21:17:54 79.80,-176.07 97.67 2.42 0
7 11/07/2019 22:09:00 -79.81, -8.94 82.30 11/07/2019 22:08:39 -79.81, -8.90 82.30 0.93 21
8 11/07/2019 22:59:55 79.81, 158.31 97.72 11/07/2019 22:59:25 79.83, 158.23 97.75 2.85 30
9 11/07/2019 23:51:00 -79.83, -34.23 82.28 11/07/2019 23:50:09 -79.82, -34.31 82.27 2.36 51
10 11/08/2019 00:41:55 79.83, 133.03 97.73 11/08/2019 00:40:54 79.80, 133.10 97.73 3.08 61




NCC Satellite Simultaneous Nadir Overpasses (SNOs) Prediction Service
